Location: Daouli
(14.8671°N, 3.2030°W)
Time: 23:31:22
(UTC+00:00)

SWIFT - Pass Details

Date: 29 October 2020
Orbit: 544 x 560 km, 20.6° (Epoch: 03 December)

Event Time Altitude Azimuth Distance (km) Brightness Sun altitude
Rises 19:13:29 0° 273° (W) 2,724 7.3 -21.8°
Reaches altitude 10° 19:16:00 10° 262° (W) 1,829 6.1 -22.4°
Maximum altitude 19:19:42 29° 201° (SSW) 1,028 3.9 -23.2°
Enters shadow 19:20:53 25° 172° (S) 1,133 3.9 -23.5°
